Weather observations for the past three days for
Tulsa - Jones Jr. Airport
| Date | Time (cdt) | Wind (mph) | Vis. (mi.) | Weather | Sky Cond. | Temperature (ºF) | Relative Humidity | Wind Chill (°F) | Heat Index (°F) | Pressure | Precipitation (in) | ||||||
|---|---|---|---|---|---|---|---|---|---|---|---|---|---|---|---|---|---|
| Air | Dwpt | 6 hour | altimeter (in) | sea level (mb) | 1 hr | 3 hr | 6 hr | ||||||||||
| Max. | Min. | ||||||||||||||||
| 06 | 06:53 | N 10 | 10.00 | Mostly Cloudy | BKN050 | 48.9 | 42.1 | 52 | 48.9 | 77% | 45 | 30.01 | 1016.5 | ||||
| 06 | 05:53 | N 13 G 18 | 10.00 | Overcast | OVC048 | 50 | 42.1 | 74% | 46 | 30 | 1016.1 | ||||||
| 06 | 04:53 | N 8 | 10.00 | Overcast | OVC049 | 50 | 42.1 | 74% | 47 | 29.98 | 1015.6 | ||||||
| 06 | 03:53 | N 12 | 10.00 | Overcast | OVC044 | 50 | 42.1 | 74% | 46 | 29.93 | 1013.9 | ||||||
| 06 | 02:53 | NE 10 G 22 | 10.00 | Overcast | OVC042 | 51.1 | 39.9 | 66% | 29.92 | 1013.5 | |||||||
| 06 | 01:53 | NE 13 G 22 | 10.00 | Overcast | OVC039 | 51.1 | 39.9 | 66% | 29.91 | 1013.2 | |||||||
| 06 | 00:53 | NE 14 G 24 | 10.00 | Overcast | OVC035 | 52 | 39 | 53.1 | 51.1 | 61% | 29.92 | 1013.4 | |||||
| 05 | 23:53 | N 13 G 23 | 10.00 | Overcast | FEW034 OVC047 | 51.1 | 39.9 | 66% | 29.91 | 1013.1 | |||||||
| 05 | 22:53 | N 10 G 22 | 10.00 | Overcast | OVC031 | 52 | 42.1 | 69% | 29.91 | 1013.8 | |||||||
| 05 | 21:53 | N 12 G 22 | 10.00 | Overcast | OVC025 | 52 | 43 | 72% | 29.9 | 1013.1 | |||||||
| 05 | 20:53 | N 10 G 22 | 10.00 | Overcast | OVC024 | 52 | 43 | 72% | 29.86 | 1011.8 | |||||||
| 05 | 19:53 | N 15 G 24 | 10.00 | Overcast | OVC024 | 52 | 43 | 72% | 29.83 | 1010.7 | |||||||
| 05 | 18:53 | N 16 G 33 | 10.00 | Overcast | OVC028 | 53.1 | 43 | 57 | 53.1 | 69% | 29.82 | 1010.4 | |||||
| 05 | 17:53 | NE 21 G 31 | 10.00 | Overcast and Breezy | OVC028 | 54 | 43 | 67% | 29.8 | 1009.7 | |||||||
| 05 | 16:53 | N 16 G 24 | 10.00 | Overcast | OVC027 | 55 | 45 | 69% | 29.78 | 1009.0 | |||||||
| 05 | 15:53 | NE 20 G 31 | 10.00 | Overcast | OVC024 | 55 | 46 | 72% | 29.76 | 1008.3 | |||||||
| 05 | 14:53 | N 13 G 29 | 10.00 | Overcast | OVC022 | 57 | 48 | 72% | 29.76 | 1008.3 | |||||||
| 05 | 13:53 | N 12 G 30 | 10.00 | Overcast | OVC018 | 55.9 | 48.9 | 77% | 29.74 | 1007.7 | |||||||
| 05 | 12:53 | N 14 G 35 | 10.00 | Overcast | OVC015 | 57 | 51.1 | 71.1 | 57 | 81% | 29.73 | 1007.2 | |||||
| 05 | 11:53 | NE 18 G 32 | 10.00 | Overcast | OVC013 | 57.9 | 52 | 81% | 29.69 | 1005.9 | |||||||
| 05 | 10:53 | N 13 G 25 | 10.00 | Overcast | BKN014 OVC019 | 60.1 | 55 | 84% | 29.67 | 1005.1 | |||||||
| 05 | 09:53 | NE 8 | 10.00 | Overcast | BKN023 BKN030 OVC044 | 70 | 63 | 79% | 29.63 | 1003.9 | |||||||
| 05 | 08:53 | SE 10 G 18 | 10.00 | A Few Clouds | FEW065 | 69.1 | 62.1 | 78% | 29.61 | 1003.2 | |||||||
| 05 | 07:53 | E 12 | 10.00 | Overcast | SCT046 OVC060 | 68 | 61 | 78% | 29.62 | 1003.6 | |||||||
| 05 | 06:53 | NE 8 | 10.00 | Overcast | BKN027 OVC036 | 66.9 | 61 | 71.1 | 66.9 | 81% | 29.62 | 1003.4 | |||||
| 05 | 05:53 | NE 10 | 10.00 | Overcast | OVC029 | 66.9 | 60.1 | 79% | 29.6 | 1002.5 | |||||||
| 05 | 04:53 | E 9 | 10.00 | Overcast | OVC032 | 66.9 | 61 | 81% | 29.57 | 1001.7 | |||||||
| 05 | 03:53 | E 9 | 10.00 | Overcast | OVC035 | 69.1 | 60.1 | 73% | 29.58 | 1001.8 | |||||||
| 05 | 02:53 | E 8 | 10.00 | Overcast | OVC032 | 70 | 60.1 | 71% | 29.59 | 1002.2 | |||||||
| 05 | 01:53 | NE 5 | 10.00 | Overcast | OVC034 | 70 | 61 | 73% | 29.61 | 1002.9 | |||||||
| 05 | 00:53 | S 8 | 10.00 | Fair | CLR | 71.1 | 60.1 | 78.1 | 71.1 | 68% | 29.59 | 1002.1 | |||||
| 04 | 23:53 | S 9 | 10.00 | Fair | CLR | 72 | 59 | 64% | 29.59 | 1002.4 | |||||||
| 04 | 22:53 | S 13 G 20 | 10.00 | Fair | CLR | 72 | 57.9 | 61% | 29.61 | 1002.9 | |||||||
| 04 | 21:53 | S 10 | 10.00 | Fair | CLR | 73 | 57 | 57% | 29.63 | 1003.5 | |||||||
| 04 | 20:53 | S 10 | 10.00 | Fair | CLR | 73.9 | 57 | 56% | 29.63 | 1003.7 | |||||||
| 04 | 19:53 | S 12 | 10.00 | Fair | CLR | 75.9 | 57.9 | 54% | 78 | 29.62 | 1003.4 | ||||||
| 04 | 18:53 | S 14 G 21 | 10.00 | Mostly Cloudy | BKN050 | 78.1 | 59 | 82 | 78.1 | 52% | 79 | 29.63 | 1003.9 | ||||
| 04 | 17:53 | S 14 G 26 | 10.00 | A Few Clouds | FEW050 | 80.1 | 59 | 49% | 81 | 29.64 | 1003.9 | ||||||
| 04 | 16:53 | S 14 G 24 | 10.00 | Fair | CLR | 81 | 59 | 47% | 81 | 29.63 | 1003.7 | ||||||
| 04 | 15:53 | S 18 G 30 | 10.00 | Fair | CLR | 81 | 59 | 47% | 81 | 29.65 | 1004.2 | ||||||
| 04 | 14:53 | S 17 G 32 | 10.00 | Fair | CLR | 82 | 59 | 46% | 82 | 29.67 | 1005.1 | ||||||
| 04 | 13:53 | S 20 G 33 | 10.00 | Fair | CLR | 82 | 59 | 46% | 82 | 29.69 | 1005.6 | ||||||
| 04 | 12:53 | S 18 G 40 | 10.00 | Fair | CLR | 81 | 57 | 81 | 62.1 | 44% | 81 | 29.71 | 1006.5 | ||||
| 04 | 11:53 | S 18 G 31 | 10.00 | Fair | CLR | 80.1 | 55.9 | 44% | 80 | 29.73 | 1007.1 | ||||||
| 04 | 10:53 | S 18 G 29 | 10.00 | Fair | CLR | 77 | 54 | 45% | 78 | 29.74 | 1007.4 | ||||||
| 04 | 09:53 | SW 16 G 25 | 10.00 | Fair | CLR | 73 | 53.1 | 50% | 29.76 | 1008.2 | |||||||
| 04 | 08:53 | S 13 G 22 | 10.00 | Fair | CLR | 68 | 51.1 | 55% | 29.78 | 1008.8 | |||||||
| 04 | 07:53 | S 8 | 10.00 | Fair | CLR | 64 | 50 | 60% | 29.79 | 1009.2 | |||||||
| 04 | 06:53 | S 7 | 10.00 | Fair | CLR | 62.1 | 48.9 | 68 | 61 | 62% | 29.79 | 1009.2 | |||||
| 04 | 05:53 | S 5 | 10.00 | Fair | CLR | 63 | 48 | 58% | 29.79 | 1009.2 | |||||||
| 04 | 04:53 | S 10 | 10.00 | Fair | CLR | 64.9 | 48 | 54% | 29.8 | 1009.6 | |||||||
| 04 | 03:53 | S 9 G 21 | 10.00 | Fair | CLR | 66 | 46.9 | 50% | 29.81 | 1009.7 | |||||||
| 04 | 02:53 | S 12 | 10.00 | Fair | CLR | 66.9 | 46.9 | 49% | 29.82 | 1010.1 | |||||||
| 04 | 01:53 | S 12 G 24 | 10.00 | Fair | CLR | 68 | 46.9 | 47% | 29.84 | 1010.7 | |||||||
| 04 | 00:53 | S 9 | 10.00 | Fair | CLR | 66.9 | 46.9 | 81 | 66.9 | 49% | 29.86 | 1011.3 | |||||
| 03 | 23:53 | S 9 | 10.00 | Fair | CLR | 69.1 | 46.9 | 45% | 29.87 | 1011.9 | |||||||
| 03 | 22:53 | S 7 | 10.00 | Fair | CLR | 69.1 | 46.9 | 45% | 29.88 | 1012.2 | |||||||
| 03 | 21:53 | S 8 | 10.00 | Fair | CLR | 72 | 46.9 | 41% | 29.88 | 1012.1 | |||||||
| 03 | 20:53 | S 7 | 10.00 | Fair | CLR | 75 | 46.9 | 37% | 77 | 29.86 | 1011.6 | ||||||
| 03 | 19:53 | S 7 | 10.00 | Fair | CLR | 78.1 | 46.9 | 33% | 78 | 29.86 | 1011.7 | ||||||
| 03 | 18:53 | Calm | 10.00 | NULL | NULL | 81 | 45 | 86 | 79 | 28% | 80 | 29.86 | 1011.8 | ||||
| 03 | 17:53 | SW 14 G 23 | 10.00 | Fair | CLR | 84.9 | 46 | 26% | 82 | 29.86 | 1011.7 | ||||||
| 03 | 16:53 | SW 14 G 24 | 10.00 | Fair | CLR | 86 | 46 | 25% | 83 | 29.87 | 1012.0 | ||||||
| 03 | 15:53 | SW 10 G 23 | 10.00 | Fair | CLR | 86 | 44.1 | 23% | 83 | 29.9 | 1012.9 | ||||||
| 03 | 14:53 | SW 15 G 24 | 10.00 | Fair | CLR | 84.9 | 50 | 30% | 83 | 29.93 | 1014.2 | ||||||
| 03 | 13:53 | S 12 | 10.00 | Fair | CLR | 82 | 54 | 38% | 81 | 29.96 | 1015.1 | ||||||
| 03 | 12:53 | S 9 | 10.00 | Fair | CLR | 80.1 | 55 | 80.1 | 48 | 42% | 80 | 29.99 | 1016.2 | ||||
| 03 | 11:53 | S 10 | 10.00 | Fair | CLR | 75 | 53.1 | 46% | 78 | 30.02 | 1017.3 | ||||||
| 03 | 10:53 | S 10 G 20 | 10.00 | Fair | CLR | 72 | 52 | 50% | 30.03 | 1017.6 | |||||||
| 03 | 09:53 | S 10 | 10.00 | Fair | CLR | 68 | 48.9 | 51% | 30.04 | 1018.1 | |||||||
| 03 | 08:53 | S 12 | 10.00 | Fair | CLR | 63 | 46 | 54% | 30.06 | 1018.5 | |||||||
| 03 | 07:53 | SW 5 | 10.00 | Fair | CLR | 55.9 | 44.1 | 65% | 30.06 | 1018.5 | |||||||
| Date | Time (cdt) | Wind (mph) | Vis. (mi.) | Weather | Sky Cond. | Air | Dwpt | Max. | Min. | Relative Humidity | Wind Chill (°F) | Heat Index (°F) | altimeter (in) | sea level (mb) | 1 hr | 3 hr | 6 hr |
| 6 hour | |||||||||||||||||
| Temperature (ºF) | Pressure | Precipitation (in) | |||||||||||||||